Home > Weather > Bijar > Past weeks

Flag for Iran Past Weather in Bijar, Iran — Yesterday and Last 2 Weeks

Now
84 °F

Clear.


Feels Like: 81 °F
Forecast: 61 / 100 °F
Wind: 7 mph from North

Location: Sanandaj Airport

Current Time: Jul 24, 2016 at 1:51:00 AM

Latest Report: Jul 24, 2016 at 1:24 AM


Visibility: 10 mi

Pressure: 29.77 "Hg (23.94 "Hg at 1927m altitude)

Humidity: 20%

Dew Point: 39 °F

Location of BijarLocation

Past Weather in Bijar — Graph

°F

Bijar Temperature Yesterday

Maximum temperature yesterday: 104 °F (at 3:30 PM)
Minimum temperature yesterday: 63 °F (at 6:25 AM)
Average temperature yesterday: 84 °F

High & Low Weather Summary for the Past Weeks

 TemperatureHumidityPressure
High106 °F (Jul 16, 4:30 PM)52% (Jul 13, 7:30 AM)30.15 "Hg (Jul 13, 7:30 AM)
Low61 °F (Jul 11, 6:30 AM)6% (Jul 15, 3:30 PM)28.85 "Hg (Jul 21, 7:30 AM)
Average85 °F22%29.89 "Hg
* Reported Jul 9 12:23 AM — Jul 24 12:22 AM, Bijar, Weather by CustomWeather, © 2016

Note: Actual official high and low records may vary slightly from our data, if they occured in-between our weather recording intervals... More about our weather records

Advertising

Bijar Weather History for the Previous 24 Hours

Scroll right to see more
 ConditionsComfort  
Time TempWeatherWind HumidityBarometerVisibility
12:22 AM
Sun, Jul 24
81 °FClear.5 mph20%29.77 "Hg10 mi
11:22 PM
Sat, Jul 23
81 °FClear.2 mph23%29.77 "Hg10 mi
10:22 PM84 °FClear.No wind18%29.74 "Hg10 mi
9:23 PM91 °FSunny.7 mph13%29.74 "Hg10 mi
8:22 PM95 °FSunny.5 mph11%29.71 "Hg10 mi
7:30 PM102 °FSunny.5 mph8%29.71 "Hg10 mi
6:23 PM102 °FSunny.12 mph8%29.71 "Hg10 mi
5:30 PM104 °FSunny.12 mph7%29.71 "Hg10 mi
4:30 PM104 °FSunny.14 mph6%29.74 "Hg10 mi
3:30 PM104 °FSunny.12 mph7%29.74 "Hg10 mi
2:30 PM102 °FSunny.7 mph9%29.74 "Hg10 mi
1:30 PM97 °FSunny.2 mph11%29.80 "Hg10 mi
12:30 PM95 °FSunny.5 mph11%29.80 "Hg10 mi
11:30 AM93 °FSunny.2 mph13%29.83 "Hg10 mi
10:30 AM88 °FSunny.2 mph15%29.86 "Hg10 mi
9:21 AM82 °FSunny.No wind20%29.89 "Hg10 mi
9:00 AM79 °FSunny.No wind23%29.89 "Hg10 mi
8:30 AM72 °FSunny.No wind29%29.89 "Hg10 mi
8:00 AM68 °FSunny.No wind35%29.89 "Hg10 mi
7:30 AM63 °FClear.No wind45%29.89 "Hg10 mi
6:25 AM63 °FClear.No wind42%29.89 "Hg10 mi
5:22 AM64 °FClear.No wind40%29.89 "Hg10 mi
4:22 AM66 °FClear.2 mph43%29.89 "Hg10 mi
3:22 AM66 °FClear.No wind37%29.89 "Hg10 mi
2:22 AM70 °FClear.No wind33%29.89 "Hg10 mi
1:21 AM73 °FClear.No wind25%29.92 "Hg10 mi
Weather by CustomWeather, © 2016

See weather overviewHow to use our weather pages